TIANWANG 1A (TW-1A) (40928 NORAD) Tracking and Keplerian Element Data

This shows tracking and keplerian element data for the satellite.

Feedback or suggestion? Click here.




ElementValue
Catalog40928
NameTIANWANG 1A (TW-1A)
Epoch Orbit40824
Epoch Day359.35106806
Epoch Year2022
RAAN23.6819
Inclination97.0059
Eccentricity0.0002974
Argument of Perigee86.2496
Mean Anonmoly330.9778
Mean Motion16.13275254
Decay Rate0.01259028
L11 40928U 15051D 22359.35106806 .01259028 11077-2 11130-2 0 9998
L22 40928 97.0059 23.6819 0002974 86.2496 330.9778 16.13275254408242



Live tracking and technical data element details for TIANWANG 1A (TW-1A) (NORAD 40928). TIANWANG 1A (TW-1A) can be tracked NOW for your location showing map with azimuth and elevation plus other details from your city location.







IsCatalogInMostPopularTable: catalog: 40928, numindb: 571
Update: records affected: 1



GetName: 40928 TIANWANG 1A (TW-1A)

Hit Count: updated at: Thu, 23 Jan 2025 16:48:13 GMT